Tracking 19847 objects as of 17-Sep-2019
HD Live streaming from Space Station
objects crossing your sky now

FENGYUN 1C DEB

Track FENGYUN 1C DEB now!
10-day predictions


NORAD ID: 37060
Int'l Code: 1999-025EEU
Perigee: 848.3 km
Apogee: 969.1 km
Inclination: 99.3 °
Period: 103.0 minutes
Semi major axis: 7279 km
RCS: 0.0093 m2 (small)
Launch date: May 10, 1999
Source: People's Republic of China (PRC)
Launch site: Taiyaun Space Center, China (TSC)

Note: This is SATELLITE DEBRIS
aabbcc
Your satellite tracking list
Your tracking list is empty




NASA's NSSDC Master Catalog

Two Line Element Set (TLE):
1 37060U 99025EEU 19254.25429015  .00000410  00000-0  31335-3 0  9993
2 37060  99.3369 263.8908 0082918 125.5616 235.3312 13.97761210600964
Source of the keplerian elements: AFSPC